SVR2102 OJAI-EHAM

Flight info

Callsign SVR2102
Flight time N/A
Altitude 36000
Route MUVIN1C/26L MUVIN L53 SUVAS N128 TEZAK L324 SAFTA DCT MAROS DCT LUTIG DCT EXELA UN127 RIKSO DCT LMO DCT EVIVI L863 EDIKA DCT OKANA DCT XENIT DCT BABIT DCT SASAL DCT BARUG DCT DEXIT DCT MAPOX DCT NORKU
Aircraft A21N/M-SDE2E3FGHIRWXY/LB1

Departure

Time 2026-05-07 15:03
Airport Queen Alia International Airport (OJAI)

Arrival

Time N/A
Airport Amsterdam Airport Schiphol (EHAM)
Time Latitude Longitude Altitude Speed Heading
2026-05-07 15:03 31.81872 35.73136 17007 ft 347 kts 303°
2026-05-07 15:03 31.83263 35.70832 18022 ft 352 kts 302°
2026-05-07 15:03 31.84693 35.68463 18935 ft 357 kts 302°
2026-05-07 15:03 31.86145 35.66057 19778 ft 362 kts 303°
2026-05-07 15:04 31.87588 35.63662 20592 ft 367 kts 303°
2026-05-07 15:04 31.89099 35.61156 21415 ft 372 kts 303°
2026-05-07 15:04 31.90606 35.58654 22218 ft 376 kts 303°
2026-05-07 15:04 31.92114 35.56149 23006 ft 381 kts 303°
2026-05-07 15:05 31.93649 35.53584 23780 ft 386 kts 303°
2026-05-07 15:05 31.95190 35.50964 24423 ft 390 kts 302°
2026-05-07 15:05 31.96734 35.48314 25060 ft 394 kts 302°
2026-05-07 15:05 31.98292 35.45625 25696 ft 398 kts 302°
2026-05-07 15:06 31.99839 35.42955 26344 ft 400 kts 302°
2026-05-07 15:06 32.01412 35.40238 26991 ft 402 kts 302°
2026-05-07 15:06 32.02999 35.37497 27532 ft 407 kts 302°
2026-05-07 15:06 32.04609 35.34718 28083 ft 410 kts 302°
2026-05-07 15:07 32.06230 35.31919 28630 ft 414 kts 302°
2026-05-07 15:07 32.07839 35.29139 29147 ft 417 kts 302°
2026-05-07 15:07 32.09481 35.26302 29651 ft 420 kts 302°
2026-05-07 15:07 32.11137 35.23439 30163 ft 423 kts 302°
2026-05-07 15:08 32.12801 35.20558 30613 ft 425 kts 302°
2026-05-07 15:08 32.14481 35.17650 31119 ft 425 kts 302°
2026-05-07 15:08 32.16121 35.14808 31696 ft 424 kts 302°
2026-05-07 15:08 32.17783 35.11927 32256 ft 422 kts 302°
2026-05-07 15:09 32.19435 35.09060 32797 ft 421 kts 302°
2026-05-07 15:09 32.21082 35.06200 33323 ft 420 kts 302°
2026-05-07 15:09 32.22723 35.03346 33828 ft 419 kts 302°
2026-05-07 15:09 32.24360 35.00496 34295 ft 418 kts 302°
2026-05-07 15:10 32.25968 34.97696 34723 ft 417 kts 301°
2026-05-07 15:10 32.27596 34.94859 35166 ft 415 kts 301°
2026-05-07 15:10 32.29217 34.92032 35537 ft 415 kts 301°
2026-05-07 15:10 32.30840 34.89197 35891 ft 415 kts 301°
2026-05-07 15:11 32.32463 34.86363 36077 ft 417 kts 301°
2026-05-07 15:11 32.34065 34.83560 36099 ft 416 kts 301°
2026-05-07 15:11 32.37313 34.77877 36101 ft 416 kts 301°
2026-05-07 15:12 32.40562 34.72183 36109 ft 416 kts 301°
2026-05-07 15:12 32.43782 34.66532 36106 ft 415 kts 301°
2026-05-07 15:13 32.47016 34.60846 36108 ft 415 kts 301°
2026-05-07 15:13 32.50229 34.55192 36110 ft 415 kts 301°
2026-05-07 15:14 32.53448 34.49519 36113 ft 414 kts 301°
2026-05-07 15:14 32.56668 34.43833 36114 ft 414 kts 301°
2026-05-07 15:15 32.59864 34.38180 36116 ft 414 kts 301°
2026-05-07 15:15 32.63072 34.32499 36120 ft 414 kts 301°
2026-05-07 15:16 32.66267 34.26831 36124 ft 414 kts 301°
2026-05-07 15:16 32.69472 34.21138 36136 ft 414 kts 301°
2026-05-07 15:17 32.72655 34.15476 36127 ft 413 kts 301°
2026-05-07 15:17 32.75846 34.09790 36128 ft 413 kts 301°
2026-05-07 15:18 32.78495 34.05063 36129 ft 413 kts 301°
2026-05-07 15:18 32.81683 33.99367 36132 ft 413 kts 301°
2026-05-07 15:19 32.84864 33.93674 36133 ft 412 kts 301°
2026-05-07 15:19 32.88014 33.88027 36136 ft 411 kts 301°
2026-05-07 15:20 32.91184 33.82338 36135 ft 411 kts 301°
2026-05-07 15:20 32.94342 33.76660 36136 ft 411 kts 301°
2026-05-07 15:21 32.97479 33.71011 36138 ft 411 kts 301°
2026-05-07 15:21 33.00628 33.65334 36134 ft 409 kts 301°
2026-05-07 15:22 33.03763 33.59673 36135 ft 407 kts 301°
2026-05-07 15:22 33.06857 33.54075 36141 ft 407 kts 301°
2026-05-07 15:23 33.09980 33.48418 36143 ft 407 kts 301°
2026-05-07 15:23 33.13080 33.42792 36138 ft 407 kts 301°
2026-05-07 15:24 33.16192 33.37138 36142 ft 407 kts 301°
2026-05-07 15:24 33.19300 33.31482 36144 ft 407 kts 301°
2026-05-07 15:25 33.22389 33.25852 36145 ft 407 kts 301°
2026-05-07 15:25 33.25496 33.20180 36142 ft 407 kts 301°
2026-05-07 15:26 33.28573 33.14555 36144 ft 407 kts 301°
2026-05-07 15:26 33.31669 33.08886 36136 ft 406 kts 301°
2026-05-07 15:27 33.34762 33.03213 36150 ft 406 kts 301°
2026-05-07 15:27 33.37825 32.97588 36143 ft 406 kts 301°
2026-05-07 15:28 33.40912 32.91910 36144 ft 406 kts 301°
2026-05-07 15:28 33.43974 32.86268 36143 ft 406 kts 301°
2026-05-07 15:29 33.47051 32.80590 36148 ft 405 kts 301°
2026-05-07 15:29 33.50118 32.74923 36149 ft 404 kts 301°
2026-05-07 15:30 33.53179 32.69257 36151 ft 404 kts 301°
2026-05-07 15:30 33.56211 32.63636 36152 ft 404 kts 301°
2026-05-07 15:31 33.59266 32.57963 36152 ft 403 kts 301°
2026-05-07 15:31 33.62315 32.52294 36150 ft 403 kts 301°
2026-05-07 15:32 33.65347 32.46646 36151 ft 403 kts 301°
2026-05-07 15:32 33.68385 32.40979 36150 ft 403 kts 301°
2026-05-07 15:33 33.71404 32.35340 36157 ft 403 kts 301°
2026-05-07 15:33 33.74432 32.29673 36155 ft 403 kts 301°
2026-05-07 15:34 33.77455 32.24008 36156 ft 402 kts 301°
2026-05-07 15:34 33.80483 32.18324 36155 ft 402 kts 301°
2026-05-07 15:35 33.83483 32.12685 36157 ft 402 kts 301°
2026-05-07 15:35 33.86538 32.07036 36159 ft 403 kts 304°
2026-05-07 15:36 33.89903 32.01639 36156 ft 402 kts 306°
2026-05-07 15:36 33.93305 31.96334 36159 ft 402 kts 306°
2026-05-07 15:37 33.96738 31.91008 36160 ft 402 kts 306°
2026-05-07 15:37 34.00164 31.85677 36157 ft 402 kts 306°
2026-05-07 15:38 34.03567 31.80363 36163 ft 402 kts 306°
2026-05-07 15:38 34.06984 31.75016 36163 ft 401 kts 306°
2026-05-07 15:39 34.10394 31.69673 36160 ft 401 kts 306°
2026-05-07 15:39 34.13776 31.64364 36160 ft 401 kts 306°
2026-05-07 15:40 34.17181 31.59013 36164 ft 401 kts 306°
2026-05-07 15:40 34.20556 31.53702 36164 ft 401 kts 306°
2026-05-07 15:41 34.23959 31.48338 36163 ft 400 kts 306°
2026-05-07 15:41 34.27323 31.43026 36168 ft 399 kts 306°
2026-05-07 15:42 34.30705 31.37680 36169 ft 399 kts 306°
2026-05-07 15:42 34.34083 31.32331 36172 ft 399 kts 306°
2026-05-07 15:43 34.37433 31.27020 36170 ft 399 kts 306°
2026-05-07 15:43 34.40798 31.21675 36167 ft 398 kts 306°
2026-05-07 15:44 34.44149 31.16346 36171 ft 397 kts 306°
2026-05-07 15:44 34.47473 31.11052 36171 ft 397 kts 306°
2026-05-07 15:45 34.50810 31.05729 36170 ft 397 kts 306°
2026-05-07 15:45 34.54157 31.00383 36167 ft 397 kts 306°
2026-05-07 15:46 34.59137 30.92411 36167 ft 396 kts 306°
2026-05-07 15:47 34.62482 30.87102 36168 ft 395 kts 307°
2026-05-07 15:47 34.65934 30.81894 36168 ft 395 kts 308°
2026-05-07 15:48 34.69389 30.76755 36168 ft 395 kts 308°
2026-05-07 15:48 34.72868 30.71561 36168 ft 395 kts 308°
2026-05-07 15:49 34.76310 30.66391 36173 ft 394 kts 308°
2026-05-07 15:49 34.79766 30.61186 36171 ft 394 kts 308°
2026-05-07 15:50 34.83212 30.55987 36169 ft 394 kts 308°
2026-05-07 15:50 34.86642 30.50807 36163 ft 394 kts 308°
2026-05-07 15:51 34.90086 30.45598 36168 ft 394 kts 308°
2026-05-07 15:51 34.93503 30.40421 36168 ft 394 kts 308°
2026-05-07 15:52 34.96938 30.35211 36169 ft 393 kts 308°
2026-05-07 15:52 35.00350 30.30027 36171 ft 393 kts 308°
2026-05-07 15:53 35.03776 30.24814 36170 ft 393 kts 308°
2026-05-07 15:53 35.07173 30.19639 36170 ft 392 kts 308°
2026-05-07 15:54 35.10589 30.14425 36170 ft 392 kts 308°
2026-05-07 15:54 35.14004 30.09205 36176 ft 392 kts 309°
2026-05-07 15:55 35.17382 30.04035 36171 ft 390 kts 309°
2026-05-07 15:55 35.20757 29.98815 36170 ft 390 kts 308°
2026-05-07 15:56 35.24010 29.93524 36170 ft 390 kts 307°
2026-05-07 15:56 35.27239 29.88183 36170 ft 390 kts 307°
2026-05-07 15:57 35.30477 29.82833 36169 ft 390 kts 307°
2026-05-07 15:57 35.33688 29.77538 36170 ft 389 kts 307°
2026-05-07 15:58 35.36919 29.72211 36170 ft 389 kts 307°
2026-05-07 15:58 35.40151 29.66877 36169 ft 389 kts 307°
2026-05-07 15:59 35.43351 29.61583 36170 ft 389 kts 307°
2026-05-07 15:59 35.46574 29.56244 36169 ft 389 kts 307°
2026-05-07 16:00 35.49800 29.50892 36172 ft 389 kts 307°
2026-05-07 16:00 35.52994 29.45587 36181 ft 389 kts 307°
2026-05-07 16:01 35.56208 29.40237 36170 ft 389 kts 307°
2026-05-07 16:01 35.59420 29.34882 36169 ft 389 kts 307°
2026-05-07 16:02 35.62630 29.29524 36172 ft 389 kts 307°
2026-05-07 16:02 35.65819 29.24192 36168 ft 389 kts 307°
2026-05-07 16:03 35.69012 29.18845 36169 ft 389 kts 307°
2026-05-07 16:03 35.72200 29.13500 36171 ft 389 kts 307°
2026-05-07 16:04 35.75400 29.08124 36167 ft 389 kts 307°
2026-05-07 16:04 35.78058 29.03654 36168 ft 388 kts 307°
2026-05-07 16:05 35.81773 28.97394 36169 ft 388 kts 307°
2026-05-07 16:05 35.84423 28.92924 36165 ft 387 kts 307°
2026-05-07 16:06 35.87600 28.87555 36164 ft 386 kts 307°
2026-05-07 16:06 35.90774 28.82184 36163 ft 386 kts 307°
2026-05-07 16:07 35.93921 28.76850 36163 ft 386 kts 307°
2026-05-07 16:07 35.97086 28.71478 36162 ft 385 kts 307°
2026-05-07 16:08 36.00215 28.66157 36154 ft 385 kts 307°
2026-05-07 16:08 36.03356 28.60807 36160 ft 383 kts 307°
2026-05-07 16:09 36.06482 28.55475 36163 ft 383 kts 307°
2026-05-07 16:09 36.09592 28.50163 36159 ft 383 kts 307°
2026-05-07 16:10 36.12718 28.44815 36160 ft 382 kts 307°
2026-05-07 16:10 36.15819 28.39503 36157 ft 382 kts 307°
2026-05-07 16:11 36.18929 28.34172 36147 ft 381 kts 307°
2026-05-07 16:11 36.22026 28.28851 36152 ft 380 kts 307°
2026-05-07 16:12 36.25116 28.23536 36152 ft 379 kts 307°
2026-05-07 16:12 36.28183 28.18251 36154 ft 379 kts 307°
2026-05-07 16:13 36.31274 28.12918 36173 ft 379 kts 307°
2026-05-07 16:13 36.34515 28.07806 36161 ft 379 kts 314°
2026-05-07 16:14 36.38302 28.03206 36156 ft 378 kts 316°
2026-05-07 16:14 36.42131 27.98780 36156 ft 377 kts 316°
2026-05-07 16:15 36.45996 27.94348 36151 ft 377 kts 316°
2026-05-07 16:15 36.49826 27.89933 36154 ft 377 kts 316°
2026-05-07 16:16 36.53671 27.85482 36150 ft 377 kts 316°
2026-05-07 16:16 36.57508 27.81028 36149 ft 377 kts 316°
2026-05-07 16:17 36.61318 27.76598 36152 ft 377 kts 316°
2026-05-07 16:17 36.65159 27.72127 36153 ft 378 kts 316°
2026-05-07 16:18 36.69008 27.67641 36154 ft 378 kts 316°
2026-05-07 16:18 36.72832 27.63179 36156 ft 379 kts 316°
2026-05-07 16:19 36.76683 27.58678 36156 ft 379 kts 316°
2026-05-07 16:19 36.80528 27.54177 36154 ft 378 kts 316°
2026-05-07 16:20 36.84369 27.49674 36154 ft 378 kts 316°
2026-05-07 16:20 36.88184 27.45196 36153 ft 378 kts 316°
2026-05-07 16:21 36.92019 27.40687 36156 ft 378 kts 316°
2026-05-07 16:21 36.95829 27.36200 36159 ft 378 kts 316°
2026-05-07 16:22 36.99663 27.31680 36153 ft 379 kts 316°
2026-05-07 16:22 37.03502 27.27147 36153 ft 379 kts 316°
2026-05-07 16:23 37.07319 27.22634 36153 ft 379 kts 316°
2026-05-07 16:23 37.11159 27.18086 36154 ft 379 kts 316°
2026-05-07 16:24 37.14975 27.13563 36152 ft 380 kts 315°
2026-05-07 16:24 37.18819 27.08996 36153 ft 380 kts 315°
2026-05-07 16:25 37.22644 27.04447 36157 ft 380 kts 315°
2026-05-07 16:25 37.26492 26.99862 36158 ft 381 kts 315°
2026-05-07 16:26 37.30340 26.95272 36158 ft 381 kts 315°
2026-05-07 16:26 37.34161 26.90706 36157 ft 381 kts 315°
2026-05-07 16:27 37.38017 26.86094 36155 ft 381 kts 315°
2026-05-07 16:27 37.41917 26.81583 36156 ft 383 kts 317°
2026-05-07 16:28 37.45984 26.77197 36158 ft 384 kts 318°
2026-05-07 16:28 37.50043 26.72867 36161 ft 384 kts 318°
2026-05-07 16:29 37.54112 26.68492 36155 ft 384 kts 318°
2026-05-07 16:29 37.58144 26.64130 36155 ft 384 kts 317°
2026-05-07 16:30 37.62196 26.59733 36158 ft 384 kts 317°
2026-05-07 16:30 37.66248 26.55329 36152 ft 384 kts 317°
2026-05-07 16:31 37.70265 26.50963 36160 ft 384 kts 317°
2026-05-07 16:31 37.74321 26.46554 36155 ft 384 kts 317°
2026-05-07 16:32 37.78358 26.42161 36156 ft 384 kts 317°
2026-05-07 16:32 37.82411 26.37743 36161 ft 384 kts 317°
2026-05-07 16:33 37.86474 26.33308 36157 ft 386 kts 317°
2026-05-07 16:33 37.90521 26.28874 36156 ft 387 kts 317°
2026-05-07 16:34 37.94573 26.24424 36149 ft 387 kts 316°
2026-05-07 16:34 37.98642 26.19948 36153 ft 387 kts 316°
2026-05-07 16:35 38.02721 26.15454 36156 ft 387 kts 316°
2026-05-07 16:35 38.06793 26.10963 36157 ft 387 kts 316°
2026-05-07 16:36 38.10838 26.06492 36157 ft 387 kts 316°
2026-05-07 16:36 38.14906 26.01988 36157 ft 389 kts 316°
2026-05-07 16:37 38.18972 25.97481 36155 ft 390 kts 316°
2026-05-07 16:37 38.23067 25.92935 36153 ft 390 kts 316°
2026-05-07 16:38 38.27252 25.88474 36153 ft 392 kts 319°
2026-05-07 16:38 38.31570 25.84273 36149 ft 393 kts 320°
2026-05-07 16:39 38.35950 25.80078 36155 ft 393 kts 320°
2026-05-07 16:39 38.40285 25.75884 36156 ft 393 kts 320°
2026-05-07 16:40 38.44637 25.71635 36144 ft 394 kts 320°
2026-05-07 16:40 38.48996 25.67367 36143 ft 394 kts 320°
2026-05-07 16:41 38.53353 25.63098 36141 ft 395 kts 319°
2026-05-07 16:41 38.57692 25.58842 36144 ft 395 kts 319°
2026-05-07 16:42 38.62057 25.54553 36136 ft 395 kts 319°
2026-05-07 16:42 38.66424 25.50255 36140 ft 395 kts 319°
2026-05-07 16:43 38.70791 25.45950 36139 ft 397 kts 319°
2026-05-07 16:43 38.75148 25.41648 36137 ft 398 kts 319°
2026-05-07 16:44 38.79543 25.37303 36134 ft 398 kts 319°
2026-05-07 16:44 38.83926 25.32961 36134 ft 398 kts 319°
2026-05-07 16:45 38.88296 25.28627 36134 ft 398 kts 319°
2026-05-07 16:45 38.92661 25.24290 36133 ft 398 kts 319°
2026-05-07 16:46 38.97052 25.19919 36130 ft 399 kts 319°
2026-05-07 16:46 39.01457 25.15529 36129 ft 399 kts 319°
2026-05-07 16:47 39.05825 25.11168 36129 ft 399 kts 319°
2026-05-07 16:47 39.10218 25.06775 36128 ft 399 kts 319°
2026-05-07 16:48 39.14609 25.02377 36130 ft 399 kts 319°
2026-05-07 16:48 39.18975 24.97997 36126 ft 400 kts 318°
2026-05-07 16:49 39.23352 24.93600 36117 ft 400 kts 318°
2026-05-07 16:49 39.27748 24.89177 36119 ft 400 kts 318°
2026-05-07 16:50 39.32141 24.84751 36135 ft 400 kts 318°
2026-05-07 16:50 39.36510 24.80343 36133 ft 400 kts 318°
2026-05-07 16:51 39.40907 24.75898 36120 ft 400 kts 318°